[[{"header":{"parameterUnit":"m.s-1","parameterCategory":1,"la1":30.2991,"la2":30.254,"lo1":-89.0895,"lo2":-89.0444,"dy":0.0017,"dx":0.0017,"nx":28,"ny":28,"refTime":"2024-12-12T03:00:00:Z","depth":0,"parameterNumber":2,"parameterNumberName":"U-component_of_WINDS"},"data":[0,0,0,0,0,0,0,0,0,0,0,0,0,0,0,0,0,0,0,0,0,0,0,0,0,0,0,0,0,0,0,0,0,0,0,0,0,0,0,0,0,0,0,0,0,0,0,0,0,0,0,0,0,0,0,0,0,0,0.3822,0.3822,0,0.3781,0.3781,0.378,0.3799,0.38,0.3801,0.3802,0.3756,0.3754,0.3752,0,0,0,0,0,0,0,0,0,0,0,0,0,0.3913,0.3912,0.3822,0.3822,0.3821,0.3781,0.3781,0.378,0.3798,0.38,0.3801,0.3802,0.3757,0.3754,0.3752,0,0,0,0,0,0,0,0,0,0,0,0,0,0.3873,0.3911,0.3822,0.3826,0.3825,0.3781,0.3781,0.378,0.3798,0.38,0.3801,0.3803,0.3758,0.3755,0.3751,0.3701,0,0,0.3741,0.374,0,0,0,0,0,0,0,0,0.3875,0.387,0.3826,0.3825,0.3825,0.3797,0.3796,0.3753,0.3798,0.3808,0.3802,0.3803,0.3768,0.3764,0.3753,0.3698,0.3697,0.3741,0.3739,0.3738,0.3737,0,0,0,0,0,0,0,0.3878,0.3872,0.3806,0.3825,0.3825,0.3828,0.3824,0.3788,0.378,0.3808,0.3809,0.3804,0.3768,0.3756,0.3752,0.3696,0.3741,0.3738,0.3736,0.3735,0.3597,0.3595,0,0,0,0,0,0,0.3881,0.3874,0.3807,0.3805,0.3855,0.3825,0.3821,0.3804,0.3781,0.3778,0.3803,0.3805,0.3761,0.3756,0.3751,0.3688,0.3738,0.3735,0.3733,0.3599,0.3597,0.3595,0,0,0,0,0,0,0.3883,0.3875,0.3809,0.384,0.3831,0.3822,0.3803,0.3803,0.379,0.3777,0.3775,0.3792,0.3762,0.3755,0.3713,0.3687,0.3733,0.373,0.3601,0.3598,0.3596,0.3564,0,0,0,0,0,0,0.3886,0.3876,0.3857,0.3839,0.383,0.3772,0.3802,0.3801,0.3785,0.3788,0.3766,0.3764,0.3763,0.3718,0.371,0.3683,0.3728,0.3603,0.3599,0.3596,0.3567,0.356,0.3555,0,0,0,0,0,0.3889,0.3849,0.3856,0.3848,0.3806,0.3771,0.3765,0.3765,0.3783,0.3763,0.3755,0.3765,0.3692,0.3713,0.3704,0.3677,0.3604,0.36,0.3597,0.357,0.3562,0.3555,0,0,0,0,0,0,0.3862,0.3847,0.3854,0.3807,0.379,0.3774,0.3749,0.3757,0.3734,0.3737,0.3738,0.3733,0.3688,0.3679,0.3703,0.3626,0.3651,0.3645,0.3633,0.3625,0.3619,0.3621,0.3725,0,0,0,0,0,0.3851,0.3825,0.3813,0.3773,0.3764,0.3758,0.3743,0.3745,0.3727,0.3719,0.3708,0.3689,0.3662,0.3644,0.3618,0.3567,0.3562,0.3544,0.3538,0.3533,0.3526,0.3497,0.3489,0.3582,0.3582,0.3582,0,0,0.3828,0.3816,0.3799,0.3767,0.3754,0.3726,0.3752,0.3721,0.3699,0.3714,0.3673,0.3664,0.3644,0.3597,0.3575,0.3587,0.35,0.3528,0.3524,0.352,0.3493,0.3484,0.3476,0.3579,0.358,0.358,0,0,0.3769,0.3759,0.3724,0.3711,0.3692,0.3688,0.368,0.3663,0.3657,0.3617,0.3628,0.3602,0.3556,0.354,0.3526,0.3464,0.3471,0.3456,0.3422,0.3394,0.3387,0.338,0.3356,0.3347,0.345,0.345,0.345,0,0.3741,0.37,0.3704,0.3672,0.3657,0.3672,0.3635,0.3622,0.3595,0.3584,0.3599,0.3541,0.3528,0.3476,0.3461,0.3451,0.344,0.3456,0.3388,0.3381,0.3375,0.3352,0.3343,0.3448,0.3449,0.3449,0.3449,0,0.3666,0.3637,0.3611,0.3586,0.3568,0.3534,0.3532,0.3514,0.3518,0.3513,0.3471,0.3457,0.3428,0.3417,0.342,0.3366,0.3374,0.3388,0.3412,0.3364,0.3342,0.3333,0.3445,0.3446,0.3447,0.3447,0,0,0.3587,0.3566,0.3555,0.3544,0.3525,0.3502,0.3469,0.3442,0.3425,0.3407,0.3378,0.3339,0.3353,0.3337,0.3339,0.3314,0.3264,0.3331,0.3331,0.3317,0.3201,0.3188,0.3178,0.327,0.3269,0.3267,0.3202,0,0.3525,0.3467,0.3471,0.3416,0.3388,0.3403,0.3374,0.3358,0.3353,0.3329,0.3323,0.3295,0.3316,0.3306,0.3283,0.3275,0.324,0.328,0.3241,0.3239,0.3242,0.3167,0.3153,0.3091,0.3194,0.3192,0.3191,0,0.3444,0.3424,0.3367,0.3352,0.334,0.3314,0.329,0.3267,0.325,0.3248,0.3231,0.3237,0.3203,0.3231,0.3182,0.3209,0.3194,0.3188,0.3186,0.3179,0.321,0.3155,0.3072,0.3062,0.3178,0.3179,0.318,0,0.3389,0.3348,0.3308,0.3298,0.328,0.3261,0.3252,0.3237,0.3221,0.32,0.3189,0.3164,0.3149,0.313,0.3128,0.3149,0.3079,0.3107,0.3074,0.3074,0.3056,0.3056,0.2966,0.3051,0.3052,0.3052,0.3052,0,0.3318,0.3281,0.3283,0.3258,0.3217,0.3222,0.3182,0.3175,0.3162,0.3135,0.3147,0.3121,0.3123,0.3097,0.3097,0.3056,0.305,0.3046,0.3045,0.3043,0.3043,0.303,0.3033,0.3049,0.305,0.305,0.3051,0,0.3247,0.3247,0.3204,0.3192,0.3188,0.3158,0.3147,0.3123,0.312,0.3086,0.3078,0.3073,0.3043,0.3042,0.3007,0.3007,0.2956,0.2962,0.2961,0.2961,0.2928,0.293,0.2823,0.2808,0.2906,0.2906,0.2905,0,0.32,0.3172,0.3157,0.3141,0.3131,0.3105,0.3089,0.3093,0.3075,0.3054,0.3032,0.3004,0.2981,0.2933,0.2925,0.2899,0.2902,0.2867,0.2898,0.2896,0.2898,0.2899,0.2895,0.286,0.2859,0.2858,0.2857,0,0.3115,0.3117,0.3094,0.307,0.3051,0.3032,0.3015,0.3001,0.3003,0.2983,0.2953,0.2936,0.2901,0.2872,0.2847,0.2837,0.2846,0.2848,0.2839,0.2834,0.2833,0.283,0.2941,0.2849,0.285,0.2851,0.2851,0.2852,0.3053,0.3029,0.3014,0.2988,0.2976,0.296,0.2937,0.2932,0.2907,0.288,0.2884,0.2851,0.2835,0.2802,0.279,0.2763,0.2775,0.2762,0.2758,0.2754,0.2749,0.2841,0.2759,0.2759,0.276,0.276,0.276,0,0.2966,0.2958,0.2934,0.291,0.289,0.2903,0.2885,0.2866,0.2837,0.2822,0.28,0.2765,0.2738,0.2729,0.2702,0.2682,0.2686,0.2675,0.2674,0.2671,0.2741,0.2751,0.2672,0.2672,0.2672,0.2672,0.2672,0.2672,0.2919,0.2878,0.2878,0.2832,0.2824,0.2792,0.278,0.2765,0.2753,0.2714,0.2692,0.2687,0.2674,0.2647,0.2622,0.262,0.2608,0.2594,0.2594,0.2658,0.2667,0.2675,0.2684,0.2592,0.2592,0.2526,0.2525,0.2525]},{"header":{"parameterUnit":"m.s-1","parameterCategory":1,"la1":30.2991,"la2":30.254,"lo1":-89.0895,"lo2":-89.0444,"dy":0.0017,"dx":0.0017,"nx":28,"ny":28,"refTime":"2024-12-12T03:00:00:Z","depth":0,"parameterNumber":3,"parameterNumberName":"V-component_of_WINDS"},"data":[0,0,0,0,0,0,0,0,0,0,0,0,0,0,0,0,0,0,0,0,0,0,0,0,0,0,0,0,0,0,0,0,0,0,0,0,0,0,0,0,0,0,0,0,0,0,0,0,0,0,0,0,0,0,0,0,0,0,-4.3693,-4.3695,0,-4.3856,-4.3857,-4.3859,-4.3804,-4.38,-4.3796,-4.3793,-4.3957,-4.3964,-4.3972,0,0,0,0,0,0,0,0,0,0,0,0,0,-4.3333,-4.334,-4.3693,-4.3695,-4.3697,-4.3855,-4.3857,-4.386,-4.3804,-4.38,-4.3796,-4.3791,-4.3954,-4.3964,-4.3973,0,0,0,0,0,0,0,0,0,0,0,0,0,-4.3491,-4.3342,-4.3693,-4.3688,-4.369,-4.3855,-4.3858,-4.386,-4.3805,-4.38,-4.3794,-4.3789,-4.3951,-4.3963,-4.3974,-4.4152,0,0,-4.4009,-4.4014,0,0,0,0,0,0,0,0,-4.3483,-4.3505,-4.3687,-4.3689,-4.3691,-4.3804,-4.379,-4.3958,-4.3806,-4.3761,-4.3793,-4.3787,-4.391,-4.3925,-4.3967,-4.416,-4.4167,-4.401,-4.4017,-4.4022,-4.4025,0,0,0,0,0,0,0,-4.3472,-4.3497,-4.3757,-4.369,-4.3692,-4.3678,-4.3695,-4.3822,-4.3864,-4.3765,-4.3761,-4.3781,-4.391,-4.3956,-4.397,-4.4169,-4.401,-4.402,-4.4027,-4.4032,-4.4517,-4.4523,0,0,0,0,0,0,-4.346,-4.3489,-4.3752,-4.3762,-4.3571,-4.3689,-4.3707,-4.3773,-4.3862,-4.3871,-4.3786,-4.3778,-4.3939,-4.3957,-4.3976,-4.4191,-4.4022,-4.4033,-4.404,-4.4512,-4.4519,-4.4525,0,0,0,0,0,0,-4.3452,-4.3484,-4.3745,-4.3625,-4.3657,-4.3701,-4.3775,-4.3779,-4.3825,-4.3878,-4.3885,-4.3825,-4.3935,-4.396,-4.4109,-4.4196,-4.4038,-4.4049,-4.4504,-4.4514,-4.4522,-4.4623,0,0,0,0,0,0,-4.3442,-4.3482,-4.355,-4.3626,-4.3663,-4.3877,-4.378,-4.3786,-4.3845,-4.3837,-4.3917,-4.3925,-4.3933,-4.4092,-4.4121,-4.4209,-4.4058,-4.4497,-4.4509,-4.4519,-4.4612,-4.4634,-4.4653,0,0,0,0,0,-4.343,-4.3571,-4.3554,-4.3586,-4.375,-4.3882,-4.3903,-4.3911,-4.3852,-4.3921,-4.3956,-4.3922,-4.4182,-4.4108,-4.414,-4.4233,-4.4491,-4.4505,-4.4518,-4.4603,-4.463,-4.4653,0,0,0,0,0,0,-4.3503,-4.3581,-4.3563,-4.3733,-4.3802,-4.3872,-4.396,-4.3939,-4.4024,-4.4013,-4.4017,-4.4036,-4.419,-4.4226,-4.4142,-4.441,-4.4328,-4.4348,-4.4381,-4.4408,-4.4428,-4.4416,-4.4067,0,0,0,0,0,-4.3539,-4.364,-4.3703,-4.3847,-4.3883,-4.3916,-4.3973,-4.3973,-4.4044,-4.4072,-4.4117,-4.4186,-4.4283,-4.4347,-4.4439,-4.4617,-4.4634,-4.4697,-4.4717,-4.4734,-4.4752,-4.4849,-4.4878,-4.4569,-4.4569,-4.4569,0,0,-4.3614,-4.367,-4.3733,-4.3864,-4.3916,-4.4021,-4.394,-4.4054,-4.4131,-4.4089,-4.4234,-4.4269,-4.4346,-4.4511,-4.4586,-4.4546,-4.4841,-4.4751,-4.4764,-4.4773,-4.4866,-4.4895,-4.4921,-4.4579,-4.4577,-4.4575,0,0,-4.3806,-4.3858,-4.3984,-4.4039,-4.4121,-4.4142,-4.4172,-4.4247,-4.427,-4.4415,-4.4386,-4.4477,-4.4644,-4.4701,-4.4752,-4.4966,-4.4938,-4.4995,-4.5104,-4.5198,-4.5223,-4.5244,-4.5322,-4.5349,-4.5013,-4.5013,-4.5013,0,-4.3889,-4.4046,-4.4052,-4.4169,-4.4227,-4.4195,-4.4323,-4.4376,-4.4483,-4.4524,-4.4478,-4.4688,-4.4738,-4.4916,-4.4968,-4.501,-4.5045,-4.4987,-4.5219,-4.5241,-4.5261,-4.5335,-4.5364,-4.502,-4.5019,-4.5018,-4.5018,0,-4.4145,-4.4255,-4.4347,-4.4453,-4.4522,-4.4644,-4.4668,-4.4736,-4.473,-4.4756,-4.4905,-4.4964,-4.5068,-4.511,-4.5104,-4.5288,-4.526,-4.5217,-4.5134,-4.5297,-4.5366,-4.5394,-4.5029,-4.5027,-4.5025,-4.5023,0,0,-4.4387,-4.4496,-4.453,-4.4578,-4.4666,-4.475,-4.487,-4.4973,-4.5033,-4.5108,-4.5209,-4.5352,-4.5313,-4.537,-4.5371,-4.5454,-4.5621,-4.54,-4.5402,-4.544,-4.5828,-4.5861,-4.5894,-4.5603,-4.5609,-4.5613,-4.5822,0,-4.4586,-4.48,-4.4809,-4.5003,-4.5104,-4.5075,-4.518,-4.5245,-4.5273,-4.5362,-4.5392,-4.5494,-4.5433,-4.5468,-4.5549,-4.5584,-4.5699,-4.5569,-4.5698,-4.5703,-4.5681,-4.593,-4.5965,-4.6159,-4.5849,-4.5853,-4.5857,0,-4.4848,-4.4932,-4.5137,-4.5212,-4.5254,-4.5349,-4.5445,-4.5531,-4.5604,-4.5618,-4.5683,-4.5672,-4.5795,-4.5708,-4.5878,-4.5789,-4.5842,-4.5867,-4.5875,-4.5888,-4.579,-4.5951,-4.6221,-4.6251,-4.5899,-4.5896,-4.5893,0,-4.5005,-4.517,-4.5314,-4.5356,-4.5446,-4.5514,-4.5554,-4.5622,-4.5684,-4.5767,-4.5807,-4.5903,-4.5956,-4.6031,-4.6046,-4.5981,-4.6217,-4.613,-4.6232,-4.6232,-4.6283,-4.628,-4.6567,-4.6316,-4.6316,-4.6315,-4.6315,0,-4.5227,-4.5354,-4.5386,-4.5475,-4.5616,-4.5625,-4.5764,-4.58,-4.5861,-4.5956,-4.5935,-4.6025,-4.6039,-4.6132,-4.6144,-4.6283,-4.6307,-4.6322,-4.6324,-4.6325,-4.6323,-4.636,-4.6348,-4.6323,-4.6321,-4.632,-4.6318,0,-4.5427,-4.5454,-4.561,-4.5683,-4.5704,-4.5805,-4.5867,-4.5952,-4.5977,-4.6098,-4.6127,-4.6166,-4.6274,-4.6297,-4.6424,-4.6433,-4.6599,-4.6587,-4.6575,-4.6574,-4.6675,-4.6666,-4.6997,-4.7042,-4.676,-4.6763,-4.6765,0,-4.5568,-4.5665,-4.5749,-4.5812,-4.5856,-4.5957,-4.602,-4.6032,-4.6099,-4.6191,-4.6265,-4.6371,-4.6457,-4.6631,-4.667,-4.6768,-4.6759,-4.6868,-4.6773,-4.6771,-4.6762,-4.6757,-4.6767,-4.6887,-4.689,-4.6892,-4.6894,0,-4.5815,-4.5824,-4.5916,-4.6015,-4.6091,-4.6168,-4.6242,-4.6294,-4.6316,-4.6392,-4.6503,-4.657,-4.6701,-4.6807,-4.6905,-4.6945,-4.6925,-4.6924,-4.6953,-4.6955,-4.6945,-4.6953,-4.6626,-4.6916,-4.6914,-4.6912,-4.6911,-4.691,-4.5991,-4.6076,-4.6149,-4.6253,-4.631,-4.6379,-4.6463,-4.65,-4.6593,-4.6701,-4.6703,-4.6824,-4.6895,-4.7025,-4.7072,-4.7167,-4.7133,-4.7174,-4.7185,-4.7195,-4.7206,-4.6929,-4.7185,-4.7184,-4.7183,-4.7183,-4.7182,0,-4.6238,-4.6283,-4.6379,-4.6483,-4.6565,-4.6539,-4.6619,-4.6689,-4.6797,-4.6866,-4.6951,-4.7079,-4.7182,-4.723,-4.7331,-4.7398,-4.7391,-4.7425,-4.742,-4.743,-4.723,-4.7195,-4.7429,-4.7429,-4.7429,-4.7429,-4.7429,-4.7429,-4.6376,-4.6519,-4.6537,-4.6709,-4.6753,-4.6873,-4.6921,-4.6985,-4.704,-4.7185,-4.7271,-4.7302,-4.7363,-4.7468,-4.7562,-4.7573,-4.7612,-4.765,-4.7657,-4.7469,-4.7444,-4.742,-4.7388,-4.7658,-4.7659,-4.785,-4.7852,-4.7853]}]]